Time,TemperatureF,DewpointF,PressureIn,WindDirection,WindDirectionDegrees,WindSpeedMPH,WindSpeedGustMPH,Humidity,HourlyPrecipIn,Conditions,Clouds,dailyrainin,SoftwareType,DateUTC
2013-02-10 00:01:00,28.0,-99.9,-100.00,North,359,7.0,8.0,-999,0.00,,,-99.99,,2013-02-10 07:01:00,
2013-02-10 00:11:00,28.0,-99.9,-100.00,North,359,7.0,8.0,-999,0.00,,,-99.99,,2013-02-10 07:11:00,
2013-02-10 00:21:00,29.0,-99.9,-100.00,North,359,6.0,9.0,-999,0.00,,,-99.99,,2013-02-10 07:21:00,
2013-02-10 00:32:00,29.0,-99.9,-100.00,NNW,335,7.0,9.0,-999,0.00,,,-99.99,,2013-02-10 07:32:00,
2013-02-10 00:42:00,29.0,-99.9,-100.00,NNW,335,7.0,9.0,-999,0.00,,,-99.99,,2013-02-10 07:42:00,
2013-02-10 00:52:00,28.0,-99.9,-100.00,North,356,7.0,9.0,-999,0.00,,,-99.99,,2013-02-10 07:52:00,
2013-02-10 01:01:00,28.0,-99.9,-100.00,North,1,7.0,9.0,-999,0.00,,,-99.99,,2013-02-10 08:01:00,
2013-02-10 01:11:00,28.0,-99.9,-100.00,North,1,7.0,9.0,-999,0.00,,,-99.99,,2013-02-10 08:11:00,
2013-02-10 01:22:00,28.0,-99.9,-100.00,NNW,336,7.0,10.0,-999,0.00,,,-99.99,,2013-02-10 08:22:00,
2013-02-10 01:32:00,28.0,-99.9,-100.00,NNW,336,7.0,10.0,-999,0.00,,,-99.99,,2013-02-10 08:32:00,
2013-02-10 01:43:00,28.0,-99.9,-100.00,NNW,336,7.0,10.0,-999,0.00,,,-99.99,,2013-02-10 08:43:00,
2013-02-10 01:52:00,28.0,-99.9,-100.00,North,350,7.0,10.0,-999,0.00,,,-99.99,,2013-02-10 08:52:00,
2013-02-10 02:02:00,28.0,-99.9,-100.00,North,359,7.0,10.0,-999,0.00,,,-99.99,,2013-02-10 09:02:00,
2013-02-10 02:11:00,28.0,-99.9,-100.00,North,359,7.0,10.0,-999,0.00,,,-99.99,,2013-02-10 09:11:00,
2013-02-10 02:22:00,28.0,-99.9,-100.00,North,354,7.0,9.0,-999,0.00,,,-99.99,,2013-02-10 09:22:00,
2013-02-10 02:32:00,28.0,-99.9,-100.00,North,349,7.0,9.0,-999,0.00,,,-99.99,,2013-02-10 09:32:00,
2013-02-10 02:42:00,28.0,-99.9,-100.00,North,349,7.0,9.0,-999,0.00,,,-99.99,,2013-02-10 09:42:00,
2013-02-10 02:52:00,28.0,-99.9,-100.00,North,359,7.0,9.0,-999,0.00,,,-99.99,,2013-02-10 09:52:00,
2013-02-10 03:02:00,28.0,-99.9,-100.00,NNW,338,7.0,10.0,-999,0.00,,,-99.99,,2013-02-10 10:02:00,
2013-02-10 03:11:00,28.0,-99.9,-100.00,NNW,342,7.0,10.0,-999,0.00,,,-99.99,,2013-02-10 10:11:00,
2013-02-10 03:21:00,28.0,-99.9,-100.00,NNW,342,7.0,10.0,-999,0.00,,,-99.99,,2013-02-10 10:21:00,
2013-02-10 03:32:00,28.0,-99.9,-100.00,NNW,340,7.0,10.0,-999,0.00,,,-99.99,,2013-02-10 10:32:00,
2013-02-10 03:42:00,28.0,-99.9,-100.00,NNW,340,7.0,10.0,-999,0.00,,,-99.99,,2013-02-10 10:42:00,
2013-02-10 03:52:00,28.0,-99.9,-100.00,NW,321,7.0,11.0,-999,0.00,,,-99.99,,2013-02-10 10:52:00,
2013-02-10 04:01:00,28.0,-99.9,-100.00,NNW,330,8.0,11.0,-999,0.00,,,-99.99,,2013-02-10 11:01:00,
2013-02-10 04:11:00,28.0,-99.9,-100.00,NNW,330,8.0,11.0,-999,0.00,,,-99.99,,2013-02-10 11:11:00,
2013-02-10 04:22:00,28.0,-99.9,-100.00,NNW,336,9.0,11.0,-999,0.00,,,-99.99,,2013-02-10 11:22:00,
2013-02-10 04:32:00,28.0,-99.9,-100.00,NW,315,9.0,11.0,-999,0.00,,,-99.99,,2013-02-10 11:32:00,
2013-02-10 04:42:00,28.0,-99.9,-100.00,NW,315,9.0,11.0,-999,0.00,,,-99.99,,2013-02-10 11:42:00,
2013-02-10 04:52:00,28.0,-99.9,-100.00,North,349,8.0,10.0,-999,0.00,,,-99.99,,2013-02-10 11:52:00,
2013-02-10 05:02:00,27.0,-99.9,-100.00,NNW,339,8.0,12.0,-999,0.00,,,-99.99,,2013-02-10 12:02:00,
2013-02-10 05:12:00,28.0,-99.9,-100.00,NNW,343,7.0,10.0,-999,0.00,,,-99.99,,2013-02-10 12:12:00,
2013-02-10 05:22:00,28.0,-99.9,-100.00,NNW,343,7.0,10.0,-999,0.00,,,-99.99,,2013-02-10 12:22:00,
2013-02-10 05:32:00,27.0,-99.9,-100.00,NNW,340,8.0,10.0,-999,0.00,,,-99.99,,2013-02-10 12:32:00,
2013-02-10 05:42:00,27.0,-99.9,-100.00,NNW,340,8.0,10.0,-999,0.00,,,-99.99,,2013-02-10 12:42:00,
2013-02-10 05:52:00,27.0,-99.9,-100.00,North,356,7.0,9.0,-999,0.00,,,-99.99,,2013-02-10 12:52:00,
2013-02-10 06:02:00,28.0,-99.9,-100.00,NNW,338,7.0,10.0,-999,0.00,,,-99.99,,2013-02-10 13:02:00,
2013-02-10 06:12:00,28.0,-99.9,-100.00,NNW,338,7.0,10.0,-999,0.00,,,-99.99,,2013-02-10 13:12:00,
2013-02-10 06:22:00,28.0,-99.9,-100.00,NW,326,7.0,10.0,-999,0.00,,,-99.99,,2013-02-10 13:22:00,
2013-02-10 06:32:00,27.0,-99.9,-100.00,NNW,336,8.0,11.0,-999,0.00,,,-99.99,,2013-02-10 13:32:00,
2013-02-10 06:42:00,27.0,-99.9,-100.00,NNW,336,8.0,11.0,-999,0.00,,,-99.99,,2013-02-10 13:42:00,
2013-02-10 06:52:00,26.0,-99.9,-100.00,NW,326,6.0,10.0,-999,0.00,,,-99.99,,2013-02-10 13:52:00,
2013-02-10 07:02:00,27.0,-99.9,-100.00,North,353,7.0,9.0,-999,0.00,,,-99.99,,2013-02-10 14:02:00,
2013-02-10 07:11:00,27.0,-99.9,-100.00,North,353,7.0,9.0,-999,0.00,,,-99.99,,2013-02-10 14:11:00,
2013-02-10 07:22:00,27.0,-99.9,-100.00,NNW,335,8.0,11.0,-999,0.00,,,-99.99,,2013-02-10 14:22:00,
2013-02-10 07:32:00,27.0,-99.9,-100.00,NNW,339,7.0,10.0,-999,0.00,,,-99.99,,2013-02-10 14:32:00,
2013-02-10 07:42:00,27.0,-99.9,-100.00,NNW,339,7.0,10.0,-999,0.00,,,-99.99,,2013-02-10 14:42:00,
2013-02-10 07:52:00,26.0,-99.9,-100.00,NNW,332,8.0,10.0,-999,0.00,,,-99.99,,2013-02-10 14:52:00,
2013-02-10 08:02:00,26.0,-99.9,-100.00,North,349,6.0,8.0,-999,0.00,,,-99.99,,2013-02-10 15:02:00,
2013-02-10 08:12:00,26.0,-99.9,-100.00,North,349,6.0,8.0,-999,0.00,,,-99.99,,2013-02-10 15:12:00,
2013-02-10 08:22:00,27.0,-99.9,-100.00,North,350,6.0,9.0,-999,0.00,,,-99.99,,2013-02-10 15:22:00,
2013-02-10 08:32:00,27.0,-99.9,-100.00,North,3,6.0,9.0,-999,0.00,,,-99.99,,2013-02-10 15:32:00,
2013-02-10 08:42:00,27.0,-99.9,-100.00,North,3,6.0,9.0,-999,0.00,,,-99.99,,2013-02-10 15:42:00,
2013-02-10 08:52:00,27.0,-99.9,-100.00,North,359,6.0,8.0,-999,0.00,,,-99.99,,2013-02-10 15:52:00,
2013-02-10 09:02:00,27.0,-99.9,-100.00,NNW,347,7.0,8.0,-999,0.00,,,-99.99,,2013-02-10 16:02:00,
2013-02-10 09:12:00,26.0,-99.9,-100.00,NNE,17,7.0,9.0,-999,0.00,,,-99.99,,2013-02-10 16:12:00,
2013-02-10 09:22:00,26.0,-99.9,-100.00,NNE,17,7.0,9.0,-999,0.00,,,-99.99,,2013-02-10 16:22:00,
2013-02-10 09:32:00,26.0,-99.9,-100.00,NNW,329,7.0,10.0,-999,0.00,,,-99.99,,2013-02-10 16:32:00,
2013-02-10 09:42:00,27.0,-99.9,-100.00,North,352,8.0,11.0,-999,0.00,,,-99.99,,2013-02-10 16:42:00,
2013-02-10 09:52:00,27.0,-99.9,-100.00,North,352,8.0,11.0,-999,0.00,,,-99.99,,2013-02-10 16:52:00,
2013-02-10 10:02:00,26.0,-99.9,-100.00,NW,321,8.0,12.0,-999,0.00,,,-99.99,,2013-02-10 17:02:00,
2013-02-10 10:12:00,26.0,-99.9,-100.00,NNW,346,6.0,10.0,-999,0.00,,,-99.99,,2013-02-10 17:12:00,
2013-02-10 10:22:00,26.0,-99.9,-100.00,NNW,346,6.0,10.0,-999,0.00,,,-99.99,,2013-02-10 17:22:00,
2013-02-10 10:32:00,26.0,-99.9,-100.00,NNW,332,9.0,12.0,-999,0.00,,,-99.99,,2013-02-10 17:32:00,
2013-02-10 10:42:00,26.0,-99.9,-100.00,NNW,332,9.0,12.0,-999,0.00,,,-99.99,,2013-02-10 17:42:00,
2013-02-10 10:53:00,26.0,-99.9,-100.00,NNW,332,9.0,12.0,-999,0.00,,,-99.99,,2013-02-10 17:53:00,
2013-02-10 11:02:00,26.0,-99.9,-100.00,North,359,8.0,11.0,-999,0.00,,,-99.99,,2013-02-10 18:02:00,
2013-02-10 11:12:00,26.0,-99.9,-100.00,NNW,330,9.0,11.0,-999,0.00,,,-99.99,,2013-02-10 18:12:00,
2013-02-10 11:22:00,26.0,-99.9,-100.00,NNW,330,9.0,11.0,-999,0.00,,,-99.99,,2013-02-10 18:22:00,
2013-02-10 11:32:00,26.0,-99.9,-100.00,NNW,339,10.0,13.0,-999,0.00,,,-99.99,,2013-02-10 18:32:00,
2013-02-10 11:42:00,26.0,-99.9,-100.00,NNW,339,10.0,13.0,-999,0.00,,,-99.99,,2013-02-10 18:42:00,
2013-02-10 11:52:00,26.0,-99.9,-100.00,NW,304,10.0,13.0,-999,0.00,,,-99.99,,2013-02-10 18:52:00,
2013-02-10 12:02:00,26.0,-99.9,-100.00,NNW,332,9.0,13.0,-999,0.00,,,-99.99,,2013-02-10 19:02:00,
2013-02-10 12:12:00,25.0,-99.9,-100.00,NW,319,10.0,16.0,-999,0.00,,,-99.99,,2013-02-10 19:12:00,
2013-02-10 12:22:00,25.0,-99.9,-100.00,NW,319,10.0,16.0,-999,0.00,,,-99.99,,2013-02-10 19:22:00,
2013-02-10 12:32:00,26.0,-99.9,-100.00,NNW,345,8.0,11.0,-999,0.00,,,-99.99,,2013-02-10 19:32:00,
2013-02-10 12:43:00,26.0,-99.9,-100.00,NNW,333,10.0,11.0,-999,0.00,,,-99.99,,2013-02-10 19:43:00,
2013-02-10 12:52:00,26.0,-99.9,-100.00,NNW,333,10.0,11.0,-999,0.00,,,-99.99,,2013-02-10 19:52:00,
2013-02-10 13:02:00,25.0,-99.9,-100.00,NW,309,6.0,12.0,-999,0.00,,,-99.99,,2013-02-10 20:02:00,
2013-02-10 13:12:00,25.0,-99.9,-100.00,NW,321,7.0,12.0,-999,0.00,,,-99.99,,2013-02-10 20:12:00,
2013-02-10 13:22:00,25.0,-99.9,-100.00,NW,321,7.0,12.0,-999,0.00,,,-99.99,,2013-02-10 20:22:00,
2013-02-10 13:32:00,25.0,-99.9,-100.00,NNW,333,8.0,13.0,-999,0.00,,,-99.99,,2013-02-10 20:32:00,
2013-02-10 13:42:00,25.0,-99.9,-100.00,North,357,8.0,12.0,-999,0.00,,,-99.99,,2013-02-10 20:42:00,
2013-02-10 13:53:00,25.0,-99.9,-100.00,North,357,8.0,12.0,-999,0.00,,,-99.99,,2013-02-10 20:53:00,
2013-02-10 14:03:00,25.0,-99.9,-100.00,WNW,298,10.0,13.0,-999,0.00,,,-99.99,,2013-02-10 21:03:00,
2013-02-10 14:12:00,22.0,-99.9,-100.00,NNE,31,9.0,13.0,-999,0.00,,,-99.99,,2013-02-10 21:12:00,
2013-02-10 14:22:00,22.0,-99.9,-100.00,NNE,31,9.0,13.0,-999,0.00,,,-99.99,,2013-02-10 21:22:00,
2013-02-10 14:32:00,22.0,-99.9,-100.00,NW,307,9.0,12.0,-999,0.00,,,-99.99,,2013-02-10 21:32:00,
2013-02-10 14:42:00,22.0,-99.9,-100.00,NW,323,9.0,11.0,-999,0.00,,,-99.99,,2013-02-10 21:42:00,
2013-02-10 14:52:00,22.0,-99.9,-100.00,NW,323,9.0,11.0,-999,0.00,,,-99.99,,2013-02-10 21:52:00,
2013-02-10 15:02:00,22.0,-99.9,-100.00,NNW,333,9.0,12.0,-999,0.00,,,-99.99,,2013-02-10 22:02:00,
2013-02-10 15:12:00,22.0,-99.9,-100.00,NW,314,6.0,12.0,-999,0.00,,,-99.99,,2013-02-10 22:12:00,
2013-02-10 15:22:00,22.0,-99.9,-100.00,NW,314,6.0,12.0,-999,0.00,,,-99.99,,2013-02-10 22:22:00,
2013-02-10 15:32:00,21.0,-99.9,-100.00,NW,325,9.0,13.0,-999,0.00,,,-99.99,,2013-02-10 22:32:00,
2013-02-10 15:42:00,21.0,-99.9,-100.00,NNW,332,10.0,14.0,-999,0.00,,,-99.99,,2013-02-10 22:42:00,
2013-02-10 15:53:00,21.0,-99.9,-100.00,NNW,332,10.0,14.0,-999,0.00,,,-99.99,,2013-02-10 22:53:00,
2013-02-10 16:02:00,21.0,-99.9,-100.00,NNW,340,8.0,12.0,-999,0.00,,,-99.99,,2013-02-10 23:02:00,
2013-02-10 16:12:00,21.0,-99.9,-100.00,NNW,340,8.0,12.0,-999,0.00,,,-99.99,,2013-02-10 23:12:00,
2013-02-10 16:22:00,20.0,-99.9,-100.00,NW,304,7.0,11.0,-999,0.00,,,-99.99,,2013-02-10 23:22:00,
2013-02-10 16:32:00,20.0,-99.9,-100.00,NNW,332,8.0,11.0,-999,0.00,,,-99.99,,2013-02-10 23:32:00,
2013-02-10 16:42:00,19.0,-99.9,-100.00,NW,326,4.0,8.0,-999,0.00,,,-99.99,,2013-02-10 23:42:00,
2013-02-10 16:53:00,19.0,-99.9,-100.00,NW,326,4.0,8.0,-999,0.00,,,-99.99,,2013-02-10 23:53:00,
2013-02-10 17:02:00,19.0,-99.9,-100.00,North,356,5.0,10.0,-999,0.00,,,-99.99,,2013-02-11 00:02:00,
2013-02-10 17:11:00,18.0,-99.9,-100.00,NW,318,8.0,13.0,-999,0.00,,,-99.99,,2013-02-11 00:11:00,
2013-02-10 17:22:00,18.0,-99.9,-100.00,NW,318,8.0,13.0,-999,0.00,,,-99.99,,2013-02-11 00:22:00,
2013-02-10 17:32:00,18.0,-99.9,-100.00,NW,326,8.0,12.0,-999,0.00,,,-99.99,,2013-02-11 00:32:00,
2013-02-10 17:42:00,17.0,-99.9,-100.00,NNW,332,8.0,11.0,-999,0.00,,,-99.99,,2013-02-11 00:42:00,
2013-02-10 17:52:00,17.0,-99.9,-100.00,NNW,332,8.0,11.0,-999,0.00,,,-99.99,,2013-02-11 00:52:00,
2013-02-10 18:02:00,18.0,-99.9,-100.00,NW,326,8.0,10.0,-999,0.00,,,-99.99,,2013-02-11 01:02:00,
2013-02-10 18:11:00,18.0,-99.9,-100.00,NW,326,8.0,10.0,-999,0.00,,,-99.99,,2013-02-11 01:11:00,
2013-02-10 18:22:00,17.0,-99.9,-100.00,NNW,339,6.0,10.0,-999,0.00,,,-99.99,,2013-02-11 01:22:00,
2013-02-10 18:32:00,17.0,-99.9,-100.00,NW,312,7.0,10.0,-999,0.00,,,-99.99,,2013-02-11 01:32:00,
2013-02-10 18:42:00,17.0,-99.9,-100.00,NNW,330,9.0,12.0,-999,0.00,,,-99.99,,2013-02-11 01:42:00,
2013-02-10 18:52:00,17.0,-99.9,-100.00,NNW,330,9.0,12.0,-999,0.00,,,-99.99,,2013-02-11 01:52:00,
2013-02-10 19:01:00,17.0,-99.9,-100.00,NW,319,9.0,12.0,-999,0.00,,,-99.99,,2013-02-11 02:01:00,
2013-02-10 19:11:00,17.0,-99.9,-100.00,NW,319,9.0,12.0,-999,0.00,,,-99.99,,2013-02-11 02:11:00,
2013-02-10 19:21:00,17.0,-99.9,-100.00,NNW,338,8.0,10.0,-999,0.00,,,-99.99,,2013-02-11 02:21:00,
2013-02-10 19:32:00,16.0,-99.9,-100.00,North,349,7.0,11.0,-999,0.00,,,-99.99,,2013-02-11 02:32:00,
2013-02-10 19:42:00,16.0,-99.9,-100.00,North,7,7.0,13.0,-999,0.00,,,-99.99,,2013-02-11 02:42:00,
2013-02-10 19:52:00,16.0,-99.9,-100.00,North,7,7.0,13.0,-999,0.00,,,-99.99,,2013-02-11 02:52:00,
2013-02-10 20:02:00,16.0,-99.9,-100.00,NNE,18,8.0,12.0,-999,0.00,,,-99.99,,2013-02-11 03:02:00,
2013-02-10 20:11:00,16.0,-99.9,-100.00,NW,321,4.0,9.0,-999,0.00,,,-99.99,,2013-02-11 03:11:00,
2013-02-10 20:22:00,16.0,-99.9,-100.00,NW,321,4.0,9.0,-999,0.00,,,-99.99,,2013-02-11 03:22:00,
2013-02-10 20:32:00,16.0,-99.9,-100.00,NW,325,6.0,10.0,-999,0.00,,,-99.99,,2013-02-11 03:32:00,
2013-02-10 20:42:00,16.0,-99.9,-100.00,NNW,335,5.0,8.0,-999,0.00,,,-99.99,,2013-02-11 03:42:00,
2013-02-10 20:52:00,16.0,-99.9,-100.00,NNW,335,5.0,8.0,-999,0.00,,,-99.99,,2013-02-11 03:52:00,
2013-02-10 21:02:00,16.0,-99.9,-100.00,NNW,338,4.0,10.0,-999,0.00,,,-99.99,,2013-02-11 04:02:00,
2013-02-10 21:11:00,16.0,-99.9,-100.00,NNW,338,4.0,10.0,-999,0.00,,,-99.99,,2013-02-11 04:11:00,
2013-02-10 21:22:00,16.0,-99.9,-100.00,NNW,343,3.0,9.0,-999,0.00,,,-99.99,,2013-02-11 04:22:00,
2013-02-10 21:32:00,16.0,-99.9,-100.00,NW,314,7.0,10.0,-999,0.00,,,-99.99,,2013-02-11 04:32:00,
2013-02-10 21:42:00,16.0,-99.9,-100.00,NW,321,8.0,10.0,-999,0.00,,,-99.99,,2013-02-11 04:42:00,
2013-02-10 21:52:00,16.0,-99.9,-100.00,NW,321,8.0,10.0,-999,0.00,,,-99.99,,2013-02-11 04:52:00,
2013-02-10 22:02:00,16.0,-99.9,-100.00,NNW,346,7.0,9.0,-999,0.00,,,-99.99,,2013-02-11 05:02:00,
2013-02-10 22:12:00,16.0,-99.9,-100.00,NW,315,7.0,11.0,-999,0.00,,,-99.99,,2013-02-11 05:12:00,
2013-02-10 22:22:00,16.0,-99.9,-100.00,NW,315,7.0,11.0,-999,0.00,,,-99.99,,2013-02-11 05:22:00,
2013-02-10 22:32:00,16.0,-99.9,-100.00,NNW,328,5.0,9.0,-999,0.00,,,-99.99,,2013-02-11 05:32:00,
2013-02-10 22:42:00,16.0,-99.9,-100.00,NNW,346,2.0,7.0,-999,0.00,,,-99.99,,2013-02-11 05:42:00,
2013-02-10 22:53:00,16.0,-99.9,-100.00,NNW,346,2.0,7.0,-999,0.00,,,-99.99,,2013-02-11 05:53:00,
2013-02-10 23:02:00,16.0,-99.9,-100.00,North,349,4.0,8.0,-999,0.00,,,-99.99,,2013-02-11 06:02:00,
2013-02-10 23:12:00,16.0,-99.9,-100.00,NNW,333,2.0,7.0,-999,0.00,,,-99.99,,2013-02-11 06:12:00,
2013-02-10 23:22:00,16.0,-99.9,-100.00,NNW,333,2.0,7.0,-999,0.00,,,-99.99,,2013-02-11 06:22:00,
2013-02-10 23:32:00,16.0,-99.9,-100.00,NNW,340,1.0,6.0,-999,0.00,,,-99.99,,2013-02-11 06:32:00,
2013-02-10 23:42:00,16.0,-99.9,-100.00,NNW,340,1.0,6.0,-999,0.00,,,-99.99,,2013-02-11 06:42:00,
2013-02-10 23:52:00,16.0,-99.9,-100.00,NNW,340,1.0,6.0,-999,0.00,,,-99.99,,2013-02-11 06:52:00,